Greenville/Spartanburg, SC

5:12 PM EST on February 19, 2018 (GMT -0500)
Greenville-Spartanburg International

Weather History for KGSP - May, 2013

Change the Weather History Date:

Thursday, May 2, 2013

  Actual Average Record
Temperature  
Mean Temperature 58 °F 65 °F  
Max Temperature 60 °F 77 °F 91 °F (1887)
Min Temperature 56 °F 53 °F 38 °F (1963)
Degree Days  
Heating Degree Days 7 3  
Month to date heating degree days 10 6  
Since 1 July heating degree days 2903 3012  
Cooling Degree Days 0 2  
Month to date cooling degree days 0 4  
Year to date cooling degree days 37 52  
Growing Degree Days 8 (Base 50)    
Moisture  
Dew Point 56 °F    
Average Humidity 92    
Maximum Humidity 100    
Minimum Humidity 84    
Precipitation  
Precipitation 0.04 in 0.12 in 1.59 in (2000)
Month to date precipitation 0.04 0.24  
Year to date precipitation 17.43 15.91  
Snow  
Snow 0.00 in 0.00 in 0.00 in ()
Month to date snowfall 0.0 0.0  
Since 1 July snowfall 2.0 4.7  
Snow Depth 0.00 in    
Sea Level Pressure  
Sea Level Pressure 30.23 in    
Wind  
Wind Speed 10 mph (NE)    
Max Wind Speed 15 mph    
Max Gust Speed 18 mph    
Visibility 7 miles    
Events Rain    
T = Trace of Precipitation, MM = Missing Value Source: NWS Daily Summary

Daily Weather History Graph

Daily Weather History Graph

Search for Another Location

Airport or City:

Trip Planner

Search our weather history database for the weather conditions in past years. The results will help you decide how hot, cold, wet, or windy it might be!

Date:

Astronomy

May. 02, 2013 Rise Set
Actual Time 6:36 AM EDT 8:15 PM EDT
Civil Twilight 6:09 AM EDT 8:42 PM EDT
Nautical Twilight 5:37 AM EDT 9:15 PM EDT
Astronomical Twilight 5:02 AM EDT 9:49 PM EDT
Moon 2:05 AM EDT (5/2) 1:19 PM EDT (5/2)
Length of Visible Light 14h 32m
Length of Day
13h 38m
Waning Gibbous, 48% of the Moon is Illuminated
May 2
Waning Gibbous
May 9
New
May 18
First Quarter
May 25
Full
May 31
Last Quarter

Hourly Weather History & Observations

Time (EDT) Temp. Dew Point Humidity Pressure Visibility Wind Dir Wind Speed Gust Speed Precip Events Conditions
12:14 AM 60.8 °F 55.4 °F 82% 30.25 in 10.0 mi ENE 10.4 mph 18.4 mph N/A   Overcast
12:27 AM 59.0 °F 55.4 °F 88% 30.25 in 10.0 mi NE 8.1 mph - N/A   Mostly Cloudy
12:53 AM 60.1 °F 55.0 °F 83% 30.24 in 10.0 mi NE 9.2 mph - N/A   Overcast
1:28 AM 59.0 °F 55.4 °F 88% 30.25 in 10.0 mi NE 8.1 mph - N/A   Overcast
1:53 AM 59.0 °F 55.0 °F 87% 30.23 in 10.0 mi NE 9.2 mph - N/A   Overcast
2:27 AM 59.0 °F 53.6 °F 82% 30.24 in 10.0 mi NE 9.2 mph - N/A   Overcast
2:53 AM 57.9 °F 55.0 °F 90% 30.22 in 10.0 mi NE 8.1 mph - 0.00 in Rain Light Rain
3:28 AM 57.2 °F 55.4 °F 94% 30.23 in 3.0 mi NNE 10.4 mph - 0.01 in Rain Light Rain
3:53 AM 57.0 °F 55.9 °F 96% 30.22 in 10.0 mi NNE 9.2 mph - 0.01 in   Overcast
4:53 AM 57.0 °F 55.0 °F 93% 30.20 in 10.0 mi NNE 9.2 mph - 0.00 in   Overcast
5:53 AM 57.0 °F 55.0 °F 93% 30.20 in 10.0 mi NNE 10.4 mph - 0.00 in   Overcast
6:53 AM 57.0 °F 55.0 °F 93% 30.22 in 10.0 mi NNE 10.4 mph - 0.02 in   Overcast
7:53 AM 57.0 °F 55.0 °F 93% 30.23 in 3.0 mi NNE 8.1 mph - N/A   Overcast
8:01 AM 55.4 °F 55.4 °F 100% 30.25 in 1.2 mi NNE 9.2 mph - N/A   Overcast
8:37 AM 57.2 °F 55.4 °F 94% 30.25 in 1.2 mi NE 9.2 mph - 0.01 in   Overcast
8:53 AM 57.0 °F 55.9 °F 96% 30.24 in 1.2 mi NNE 9.2 mph - 0.01 in   Overcast
9:30 AM 57.2 °F 55.4 °F 94% 30.26 in 2.5 mi NE 8.1 mph - N/A   Overcast
9:53 AM 57.9 °F 57.0 °F 97% 30.25 in 2.5 mi NE 6.9 mph - N/A   Overcast
9:58 AM 57.2 °F 57.2 °F 100% 30.26 in 5.0 mi NNE 8.1 mph - N/A   Overcast
10:37 AM 57.2 °F 57.2 °F 100% 30.27 in 2.0 mi NE 8.1 mph - N/A   Overcast
10:53 AM 57.9 °F 57.0 °F 97% 30.26 in 2.0 mi NE 9.2 mph - 0.00 in   Overcast
11:53 AM 57.9 °F 55.9 °F 93% 30.26 in 2.0 mi NNE 11.5 mph - N/A   Overcast
12:53 PM 57.0 °F 55.9 °F 96% 30.26 in 1.5 mi NE 10.4 mph - N/A   Overcast
1:26 PM 57.2 °F 55.4 °F 94% 30.27 in 2.5 mi NNE 10.4 mph - N/A   Overcast
1:53 PM 57.9 °F 57.0 °F 97% 30.25 in 2.5 mi NE 12.7 mph - N/A   Overcast
2:53 PM 59.0 °F 55.9 °F 90% 30.25 in 6.0 mi ENE 11.5 mph 17.3 mph N/A   Overcast
3:53 PM 60.1 °F 55.9 °F 86% 30.23 in 10.0 mi NE 11.5 mph - N/A   Overcast
4:53 PM 59.0 °F 57.0 °F 93% 30.22 in 4.0 mi NE 9.2 mph - N/A   Overcast
5:53 PM 59.0 °F 57.0 °F 93% 30.21 in 5.0 mi NNE 10.4 mph - N/A   Overcast
6:53 PM 60.1 °F 57.0 °F 90% 30.20 in 10.0 mi NE 8.1 mph - N/A   Overcast
7:53 PM 60.1 °F 55.9 °F 86% 30.21 in 10.0 mi NNE 10.4 mph - N/A   Overcast
8:53 PM 59.0 °F 55.9 °F 90% 30.21 in 10.0 mi NE 10.4 mph - N/A   Overcast
9:30 PM 59.0 °F 55.4 °F 88% 30.22 in 10.0 mi NE 11.5 mph - N/A   Overcast
9:53 PM 59.0 °F 55.9 °F 90% 30.21 in 10.0 mi NE 11.5 mph - N/A   Overcast
10:53 PM 59.0 °F 55.0 °F 87% 30.21 in 10.0 mi NNE 8.1 mph - N/A   Overcast
11:21 PM 59.0 °F 55.4 °F 88% 30.22 in 10.0 mi NE 9.2 mph - N/A   Overcast
11:53 PM 57.9 °F 55.9 °F 93% 30.20 in 10.0 mi NNE 9.2 mph - 0.00 in   Overcast